COSMOS 2251 DEB, 34964

Orbit data source: Space-Track

COSMOS 2251 DEB, 34964 is space debris in LEO originally from a launch on Wed, 16 Jun 1993 UTC launched from the Plesetsk Missile And Space Complex (PKMTR). The debris from Iridium 33, an American commercial communications satellite, has been tracked extensively since its accidental collision with the defunct Russian satellite Cosmos 2251 in 2009. This event, occurring at high speed in low Earth orbit (LEO), generated thousands of pieces of space debris, significantly increasing the risk of further collisions. The Iridium 33 debris cloud has impacted space traffic management and orbital debris mitigation strategies, making it a subject of ongoing study in space situational awareness.

Loading next visibility...
Identifier
34964, 1993-036AET
Orbit
LEO
Country
Flag of CISCIS
Related business
Manufacturer
Unknown
Mission
Spacecraft
Bus & Motor
Unknown
Mass
Unknown
Launch date (UTC)
1993-06-16 (33 years ago)
Launch vehicle
Unknown
Launch site
Plesetsk Missile And Space Complex (PKMTR)
Object type
Payload
Rocket body
Debris
Shape & HBR
Unknown shape, 0.1 m
Radar Cross Section
Small (<0.1 m²)

Expand to show TLE details & history
Last TLE update: 2 days ago

TLE from 2 days ago
0 COSMOS 2251 DEB
1 34964U 93036AET 26033.30362883  .00002233  00000-0  12451-2 0  9999
2 34964  73.9681 258.0761 0210645 104.9676 257.4881 14.00847500852001
Epoch: 2026-02-02T07:17Z
TLE epoch observation values (Epoch: 2026-02-02T07:17:13.530Z)
Latitude
-0.00002°
Longitude
16.26887°
Altitude
929.659 km
Speed
7.369 km/s
True Right ascension
17h 12m 18s
True Declination
0° 00' 00"
Sunlit
Object was in daylight at epoch
Visualization orbit readout
Latitude
Unknown
Longitude
Unknown
Altitude
Unknown
Speed
Unknown
Apparent Right ascension
Unknown
Apparent Declination
Unknown
Sunlit
N/A
Visualization observer readout
Local Sidereal Time
04:45:58
Azimuth
Unknown
Elevation
Unknown
Doppler factor
Unknown
Orbital elements
Apogee altitude
1,041.598 km
Perigee altitude
735.46 km
Semi-major axis
7,266.666 km
Eccentricity
0.02106
Inclination
73.9681°
RAAN
258.0761°
Arg. of periapsis
104.9676°
True anomaly
255.14563°
Mean anomaly
257.4881°
Eccentric anomaly
256.31545°
Mean motion
3.50381 °/min
Orbital period
102.75 mins
BSTAR
0.0012451
Loading maneuver chart data...
Computing Atmospheric mass density...
Loading historical data...
Loading historical data...
Loading historical data...
Loading historical data...
Loading historical data...
Loading historical data...
Loading historical data...

Documentation

Showing up to 5 results
|